www.pogodaiklimat.ru

Погода и климат >> Архив погоды >> Франция >> Бискарросс


ПОГОДА в Бискарроссе

  • Прогноз погоды в Бискарроссе
  • Монитор погоды в Бискарроссе

АРХИВ ПОГОДЫ в Бискарроссе

Время (UTC), дата Ветер
(напр.,м/с)
 
Видим.   Явления Облачность Т
(С)
Тd
(С)
f
(%)
Тe
(С)
Тes
(С)
Комфортность P
(гПа)
Po
(гПа)
Тmin
(С)
Tmax
(С)
R
(мм)
R24
(мм)
S
(см)
07 12.08 СЗ 4 20 км 9/1 960 м
[]
+18.6 +14.3 76 +19 +20 1020.0 1015.4 0.0
08 12.08 СЗ 3 20 км 10/10
[]
+19.8 +13.5 67 +22 +22 комфорт 1020.7 1016.1
09 12.08 З 3
{8}
20 км н/о +21.3 +13.2 60 +24 +24 комфорт 1021.0 1016.4 0.0
10 12.08 З 4 20 км н/о +21.1 +14.0 64 +24 +24 комфорт 1021.3 1016.7
11 12.08 З 4 20 км н/о +21.6 +12.2 55 +24 +24 комфорт 1021.5 1016.9
12 12.08 З 4
{11}
20 км н/о +21.9 +12.2 54 +24 +24 комфорт 1021.9 1017.3
13 12.08 З 5 20 км н/о +21.9 +13.3 58 +25 +25 комфорт 1022.0 1017.4
14 12.08 З 4 20 км н/о +22.2 +13.5 58 +25 +25 комфорт 1022.2 1017.6
15 12.08 СЗ 4
{10}
16 км н/о +21.3 +14.7 66 +24 +24 комфорт 1022.2 1017.6
16 12.08 СЗ 4 20 км н/о +21.3 +13.2 60 +24 +24 комфорт 1022.1 1017.5
17 12.08 СЗ 4 20 км н/о +20.6 +12.6 60 +23 +23 комфорт 1022.4 1017.8
18 12.08 СЗ 4
{10}
20 км н/о +20.0 +12.5 62 +22 +22 комфорт 1022.7 1018.1 +18.3 +22.9
19 12.08 СЗ 4 20 км 9/9 1000 м
[]
+19.2 +12.0 63 +20 +20 1023.2 1018.6
20 12.08 СЗ 3 20 км н/о +18.7 +10.8 60 +19 +19 1023.8 1019.2
21 12.08 СЗ 3
{7}
20 км н/о +18.5 +11.6 64 +19 +19 1024.3 1019.7
22 12.08 С 3 20 км 10/5 1080 м
[]
+18.3 +11.4 64 +19 +19 1024.5 1019.9
23 12.08 СЗ 2 20 км 10/1 1170 м
[]
+17.8 +10.9 64 +19 +19 1024.6 1019.9
00 13.08 СВ 1
{6}
20 км 10/10 1000 м
[]
+17.5 +11.5 68 +19 +19 1024.5 1019.8
01 13.08 В 1 20 км 10/1 1200 м
[]
+17.0 +11.7 71 +18 +18 1024.0 1019.3
02 13.08 ЮВ 1 20 км н/о +16.6 +11.3 71 +18 +18 1023.5 1018.8
03 13.08 В 1
{2}
20 км 8/8 1500 м
[]
+15.5 +11.3 76 +16 +16 1023.2 1018.5
04 13.08 В 1 20 км н/о +14.9 +11.1 78 +16 +16 1023.2 1018.5
05 13.08 В 1 20 км 8/8 1500 м
[]
+14.9 +10.7 76 +15 +15 1023.3 1018.6
06 13.08 В 1
{3}
20 км н/о +14.9 +10.9 77 +15 +15 1023.6 1018.9 +14.5 +20.2
07 13.08 В 1 20 км 9/9
[]
+16.9 +11.6 71 +18 +18 1023.7 1019.0
08 13.08 ЮВ 1 20 км н/о +18.9 +12.6 67 +21 +21 комфорт 1023.7 1019.1
09 13.08 В 1
{4}
20 км н/о +20.2 +11.1 56 +23 +23 комфорт 1024.0 1019.4
10 13.08 З 1 20 км 10/6 1140 м
[]
+20.0 +11.2 57 +23 +26 комфорт 1024.0 1019.4
11 13.08 СЗ 1 20 км н/о +20.8 +12.2 58 +24 +24 комфорт 1023.8 1019.2
12 13.08 З 2
{3}
20 км н/о +21.4 +12.3 56 +24 +24 комфорт 1023.5 1018.9
13 13.08 З 2 20 км н/о +22.0 +12.3 54 +24 +24 комфорт 1023.3 1018.7
14 13.08 З 2 20 км н/о +21.9 +11.9 53 +24 +24 комфорт 1023.1 1018.5
15 13.08 СЗ 2
{5}
20 км н/о +22.1 +12.4 54 +25 +25 комфорт 1022.9 1018.3
16 13.08 СЗ 5
{6}
20 км н/о +21.6 +11.9 54 +24 +24 комфорт 1022.7 1018.1
17 13.08 СЗ 2 20 км н/о +21.2 +12.3 57 +23 +23 комфорт 1022.5 1017.9
18 13.08 С 2
{6}
20 км н/о +20.8 +12.5 59 +24 +24 комфорт 1022.5 1017.9 +14.8 +22.8
19 13.08 С 2 20 км н/о +19.2 +12.2 64 +21 +21 комфорт 1022.7 1018.1
20 13.08 СВ 1 20 км н/о +17.7 +12.2 70 +19 +19 1022.9 1018.3
21 13.08 СВ 1
{3}
20 км н/о +17.0 +12.1 73 +18 +18 1023.1 1018.4
22 13.08 СВ 1 20 км н/о +16.6 +11.9 74 +17 +17 1023.0 1018.3
23 13.08 В 1 20 км н/о +16.2 +12.2 77 +17 +17 1022.5 1017.8
00 14.08 В 1
{3}
20 км н/о +15.5 +12.1 80 +17 +17 1022.1 1017.4
01 14.08 В 2 20 км 10/10
[]
+15.7 +12.3 80 +16 +16 1021.8 1017.1
02 14.08 В 1 20 км 10/10
[]
+15.5 +12.1 80 +16 +16 1021.5 1016.8
03 14.08 В 2
{5}
20 км н/о +14.7 +11.5 81 +15 +15 1020.7 1016.0
04 14.08 В 2 20 км н/о +14.2 +11.4 83 +14 +14 1020.5 1015.8
05 14.08 В 2 20 км н/о +14.1 +11.3 83 +14 +14 1020.8 1016.1
06 14.08 В 2
{6}
20 км н/о +14.3 +11.4 83 +14 +14 1020.8 1016.1 +14.1 +20.9
07 14.08 В 2 20 км н/о +17.1 +12.0 72 +18 +18 1020.9 1016.3
08 14.08 ЮВ 2 20 км н/о +19.2 +11.7 62 +21 +21 комфорт 1020.7 1016.1
09 14.08 ЮВ 2
{7}
20 км н/о +21.7 +12.3 55 +24 +24 комфорт 1020.8 1016.2
10 14.08 ЮВ 2 20 км н/о +23.2 +11.9 49 +26 +26 жарко 1020.4 1015.9
11 14.08 З 2 20 км н/о +23.5 +13.7 54 +26 +26 жарко 1020.4 1015.9
12 14.08 З 2
{6}
20 км 10/0
[]
+23.5 +14.8 58 +26 +26 жарко 1020.1 1015.6
13 14.08 З 2 20 км 9/9
[]
+23.9 +14.6 56 +27 +28 жарко 1020.0 1015.5
14 14.08 З 3 20 км 10/10 1500 м
[]
+23.9 +15.4 59 +27 +27 жарко 1019.8 1015.3
15 14.08 ЮЗ 3
{8}
20 км 10/10 1500 м
[]
+23.0 +16.1 65 +27 +27 душно 1019.6 1015.1
16 14.08 З 3 20 км 10/10 1410 м
[]
+21.9 +15.0 65 +25 +25 комфорт 1019.7 1015.1
17 14.08 ЮЗ 3 20 км 10/10 1470 м
[]
+21.8 +15.9 69 +25 +25 комфорт 1019.4 1014.8
18 14.08 ЮЗ 3
{7}
20 км 10/10 1000 м
[]
+21.5 +15.8 70 +25 +25 комфорт 1019.3 1014.7 +14.4 +24.8
19 14.08 З 3 20 км 10/10 1110 м
[]
+21.4 +16.1 72 +25 +25 комфорт 1019.6 1015.0
20 14.08 ЮЗ 3 20 км 10/10 750 м
[]
+21.2 +17.4 79 +25 +25 комфорт 1020.0 1015.4
21 14.08 З 4
{9}
10 км 10/10 200 м
[]
+20.2 +18.3 89 +24 +24 комфорт 1020.2 1015.6 0.0
22 14.08 ЮЗ 3 20 км 10/10 210 м
[]
+20.1 +19.1 94 +24 +24 комфорт 1020.0 1015.4 0.2
23 14.08 З 4 2500 м дождь 10/10 240 м
[]
+20.2 +19.2 94 +24 +24 комфорт 1020.0 1015.4 2
00 15.08 З 4
{10}
20 км н/о +20.1 +19.1 94 +24 +24 комфорт 1020.0 1015.4 3
01 15.08 З 4 20 км 9/9 500 м
[]
+20.1 +18.8 92 +24 +24 комфорт 1019.7 1015.1
02 15.08 З 4 20 км 10/10 600 м
[]
+20.0 +17.6 86 +23 +23 комфорт 1019.8 1015.2
03 15.08 СЗ 5
{10}
20 км н/о +19.7 +16.5 82 +22 +22 комфорт 1019.8 1015.2
04 15.08 З 4 20 км н/о +19.2 +14.2 73 +21 +21 комфорт 1019.9 1015.3
05 15.08 З 8
{11}
20 км 8/8 1260 м
[]
+19.6 +13.8 69 +21 +21 комфорт 1020.3 1015.7
06 15.08 СЗ 5
{11}
16 км 10/10 600 м
[]
+19.4 +15.5 78 +21 +21 комфорт 1021.0 1016.4 +19.1 +21.6 3
07 15.08 СЗ 4 20 км 10/10 870 м
[]
+20.1 +14.0 68 +22 +22 комфорт 1021.4 1016.8 0.0
08 15.08 З 4 20 км 10/10 1440 м
[]
+20.5 +13.9 66 +23 +23 комфорт 1021.9 1017.3
09 15.08 З 4
{11}
20 км 9/9 600 м
[]
+21.2 +14.4 65 +24 +27 комфорт 1022.2 1017.6 0.0
10 15.08 СЗ 3 20 км 10/1 900 м
[]
+21.7 +13.8 61 +25 +29 комфорт 1022.6 1018.0
11 15.08 СЗ 3 20 км 10/3 750 м
[]
+20.9 +14.3 66 +24 +29 комфорт 1022.9 1018.3
12 15.08 СЗ 2
{7}
20 км 10/10 1500 м
[]
+21.6 +14.0 62 +24 +24 комфорт 1023.0 1018.4
13 15.08 СЗ 2 20 км 10/1 800 м
[]
+23.1 +15.2 61 +27 +35 душно 1023.1 1018.5 0.0
14 15.08 СЗ 2 20 км 10/10 1500 м
[]
+22.9 +13.9 57 +26 +26 жарко 1023.1 1018.5
15 15.08 СЗ 2
{6}
20 км 8/8 1500 м
[]
+22.4 +14.0 59 +26 +28 жарко 1023.1 1018.5 0.0
16 15.08 СЗ 2 20 км н/о +22.1 +14.5 62 +25 +25 комфорт 1023.0 1018.4
17 15.08 СЗ 2 20 км н/о +22.1 +14.7 63 +25 +25 комфорт 1022.9 1018.3
18 15.08 СЗ 2
{5}
20 км н/о +20.0 +14.8 72 +23 +23 комфорт 1022.7 1018.1 +18.8 +24.0
19 15.08 СЗ 3 20 км н/о +19.7 +14.7 73 +22 +22 комфорт 1022.7 1018.1
20 15.08 СЗ 2 20 км н/о +18.9 +14.4 75 +20 +20 1023.1 1018.5
21 15.08 СВ 1
{6}
20 км н/о +17.7 +14.4 81 +19 +19 1023.3 1018.7
22 15.08 СВ 1 20 км н/о +17.0 +14.5 85 +18 +18 1022.9 1018.2
23 15.08 В 1 20 км н/о +16.4 +14.1 86 +17 +17 1022.7 1018.0
00 16.08 В 1
{3}
20 км н/о +15.3 +13.3 88 +16 +16 1022.4 1017.7
01 16.08 В 1 20 км н/о +15.4 +13.8 90 +16 +16 1021.6 1016.9
02 16.08 В 2 20 км н/о +15.1 +13.5 90 +15 +15 1021.3 1016.6
03 16.08 В 2
{4}
20 км н/о +14.4 +13.3 93 +14 +14 1021.0 1016.3
04 16.08 В 2 20 км н/о +14.6 +13.5 93 +14 +14 1020.6 1015.9
05 16.08 В 2 20 км н/о +14.3 +13.2 93 +14 +14 1020.6 1015.9
06 16.08 В 2
{5}
20 км н/о +14.6 +13.6 94 +14 +14 1020.2 1015.5 +14.2 +20.5 0.2
07 16.08 В 2 20 км н/о +17.1 +14.6 85 +18 +18 1020.2 1015.6
08 16.08 В 2 20 км н/о +19.6 +14.8 74 +22 +22 комфорт 1019.7 1015.1
09 16.08 В 1
{5}
20 км н/о +21.4 +14.5 65 +24 +24 комфорт 1019.3 1014.7
10 16.08 Ю 1 20 км н/о +23.7 +14.1 55 +26 +26 жарко 1019.3 1014.8
11 16.08 СЗ 2 20 км н/о +22.7 +15.0 62 +27 +27 душно 1018.7 1014.2
12 16.08 СЗ 3
{6}
20 км н/о +23.0 +15.1 61 +27 +27 душно 1018.2 1013.7
13 16.08 СЗ 2 20 км н/о +23.0 +15.1 61 +27 +27 душно 1017.5 1013.0
14 16.08 С 2 20 км н/о +23.1 +15.2 61 +27 +27 душно 1017.1 1012.6
15 16.08 СЗ 2
{6}
20 км н/о +23.2 +15.3 61 +27 +27 душно 1016.5 1012.0
16 16.08 С 2 20 км н/о +23.2 +15.8 63 +28 +28 душно 1015.9 1011.4
17 16.08 С 3 20 км н/о +22.4 +15.3 64 +26 +26 жарко 1015.9 1011.4
18 16.08 С 3
{7}
20 км н/о +20.9 +15.2 70 +25 +25 комфорт 1016.0 1011.4 +14.6 +24.2
19 16.08 СЗ 2 20 км н/о +20.6 +15.2 71 +24 +24 комфорт 1016.2 1011.6
20 16.08 СЗ 2 20 км н/о +20.0 +16.0 78 +23 +23 комфорт 1016.7 1012.1
21 16.08 З 2
{5}
20 км н/о +19.7 +15.6 77 +22 +22 комфорт 1016.9 1012.3
22 16.08 З 2 20 км н/о +19.5 +16.0 80 +22 +22 комфорт 1017.1 1012.5
23 16.08 З 2 20 км н/о +19.4 +16.2 82 +22 +22 комфорт 1017.1 1012.5
00 17.08 З 3
{6}
20 км н/о +19.9 +17.1 84 +23 +23 комфорт 1016.9 1012.3
01 17.08 З 3 20 км н/о +19.9 +17.3 85 +23 +23 комфорт 1016.8 1012.2
02 17.08 З 3 20 км н/о +19.8 +17.4 86 +23 +23 комфорт 1016.3 1011.7
03 17.08 З 2
{5}
20 км 9/9 300 м
[]
+19.8 +17.4 86 +23 +23 комфорт 1016.0 1011.4
04 17.08 З 2 20 км 8/8 540 м
[]
+20.1 +17.5 85 +24 +24 комфорт 1015.7 1011.1
05 17.08 ЮЗ 2 20 км н/о +19.4 +17.4 88 +22 +22 комфорт 1015.6 1011.0
06 17.08 ЮВ 1
{4}
20 км н/о +18.1 +16.9 93 +20 +20 1015.8 1011.2 +18.0 +21.2
07 17.08 Ю 1 20 км н/о +20.2 +18.0 87 +25 +25 комфорт 1016.0 1011.4
08 17.08 Ю 2 20 км н/о +22.5 +18.5 78 +28 +28 душно 1015.9 1011.4
09 17.08 Ю 2
{6}
20 км н/о +23.8 +18.2 71 +28 +28 душно 1015.8 1011.3
10 17.08 ЮЗ 2 20 км н/о +24.7 +18.9 70 +30 +30 очень
душно
1016.2 1011.7
11 17.08 ЮЗ 2 20 км н/о +25.1 +19.2 70 +30 +30 душно 1016.0 1011.5
12 17.08 ЮЗ 2
{4}
20 км н/о +25.1 +18.5 67 +30 +30 душно 1015.5 1011.0
13 17.08 З 2 20 км н/о +25.5 +18.9 67 +30 +30 душно 1015.2 1010.7
14 17.08 З 2 20 км н/о +24.5 +19.1 72 +29 +29 душно 1015.0 1010.5
15 17.08 З 1
{3}
20 км н/о +25.9 +18.6 64 +31 +31 очень
душно
1014.5 1010.0
16 17.08 СЗ 1 20 км н/о +25.8 +16.6 57 +29 +29 душно 1014.0 1009.5
17 17.08 СЗ 1 20 км н/о +25.0 +15.3 55 +28 +28 жарко 1013.7 1009.2
18 17.08 С 1
{3}
20 км н/о +24.8 +16.5 60 +28 +28 жарко 1013.2 1008.7 +18.1 +26.6
19 17.08 С 2 19 км н/о +23.0 +16.8 68 +28 +28 душно 1013.0 1008.5
20 17.08 С 1 16 км н/о +21.5 +18.3 82 +26 +26 душно 1013.3 1008.8
21 17.08 штиль 0
{3}
11 км н/о +20.6 +18.0 85 +24 +24 комфорт 1013.0 1008.5
22 17.08 В 1 18 км н/о +19.7 +17.3 86 +24 +24 комфорт 1012.9 1008.3
23 17.08 СВ 1 20 км н/о +20.0 +18.1 89 +24 +24 комфорт 1011.9 1007.4
00 18.08 СВ 1
{3}
20 км н/о +20.1 +18.6 91 +24 +24 комфорт 1011.1 1006.6
01 18.08 штиль 0 20 км н/о +20.2 +18.7 91 +23 +23 комфорт 1010.7 1006.2
02 18.08 штиль 0 20 км н/о +19.5 +18.2 92 +22 +22 комфорт 1010.6 1006.1
03 18.08 штиль 0 20 км н/о +19.2 +18.0 93 +21 +21 комфорт 1010.5 1005.9
04 18.08 СВ 1 20 км н/о +19.3 +18.3 94 +23 +23 комфорт 1010.0 1005.5
05 18.08 В 1 19 км н/о +18.6 +17.6 94 +21 +21 комфорт 1009.9 1005.3
06 18.08 штиль 0
{2}
20 км н/о +18.5 +17.5 94 +19 +19 1010.6 1006.0 +18.3 +24.8
07 18.08 штиль 0 15 км н/о +21.3 +19.4 89 +26 +26 душно 1011.4 1006.9
08 18.08 ЮЗ 1 10 км н/о +22.9 +19.7 82 +29 +29 очень
душно
1011.9 1007.4
09 18.08 ЮЗ 2
{4}
19 км н/о +23.8 +19.5 77 +29 +29 душно 1012.7 1008.2
10 18.08 ЮЗ 2 20 км н/о +24.7 +20.4 77 +31 +31 очень
душно
1013.5 1009.0
11 18.08 ЮЗ 3 20 км 9/1 300 м
[]
+24.6 +20.7 79 +31 +37 очень
душно
1014.1 1009.6
12 18.08 СЗ 3
{8}
19 км 10/10 300 м
[]
+23.1 +19.9 82 +30 +31 очень
душно
1013.9 1009.4
13 18.08 СЗ 3 20 км 9/6 420 м
[]
+23.1 +18.6 76 +29 +33 очень
душно
1014.2 1009.7
14 18.08 СЗ 3 20 км 9/9 2000 м
[]
+23.4 +17.8 71 +29 +30 душно 1014.7 1010.2
15 18.08 СЗ 4
{9}
20 км н/о +22.5 +17.6 74 +28 +28 душно 1015.0 1010.5
16 18.08 С 4 20 км 9/9 450 м
[]
+21.3 +17.1 77 +25 +26 комфорт 1015.9 1011.4
17 18.08 СЗ 3 20 км 10/1 480 м
[]
+20.5 +16.5 78 +24 +25 комфорт 1015.8 1011.2
18 18.08 СЗ 3
{8}
19 км слаб. дождь 10/10 300 м
[]
+19.2 +17.3 89 +21 +21 комфорт 1016.5 1011.9 +18.5 +25.2 0.4
19 18.08 СЗ 3 8000 м слаб. дождь 10/10 400 м
[]
+18.3 +16.8 91 +19 +19 1017.0 1012.4 1
20 18.08 СЗ 2 13 км слаб. дождь 10/6 960 м
[]
+15.7 +13.4 86 +16 +16 1018.0 1013.3 4
21 18.08 З 3
{6}
19 км 10/10 1500 м
[]
+16.9 +15.8 93 +17 +17 1018.7 1014.1 6
22 18.08 СЗ 4 20 км 10/9 1050 м
[]
+18.4 +13.7 74 +19 +19 1019.2 1014.6
23 18.08 СЗ 4 20 км 10/1 1110 м
[]
+18.4 +12.4 68 +19 +19 1019.4 1014.8
00 19.08 СЗ 3
{8}
20 км 10/10 1000 м
[]
+18.6 +13.2 71 +19 +19 1019.8 1015.2
01 19.08 СЗ 3 20 км 9/1 930 м
[]
+18.3 +12.5 69 +19 +19 1019.8 1015.2
02 19.08 СЗ 2 20 км 10/10 2000 м
[]
+17.8 +12.7 72 +18 +18 1019.8 1015.2
03 19.08 СЗ 2
{5}
20 км н/о +15.9 +12.6 81 +16 +16 1019.9 1015.2
05 19.08 В 1 20 км 10/3 1110 м
[]
+16.5 +13.2 81 +18 +18 1020.4 1015.7

 

Местоположение метеостанции Бискарросс (Франция): широта 44.43 долгота -1.25 высота над уровнем моря 39 м.

В архиве по умолчанию представлена погода в Бискарроссе за последнюю неделю. Архивные данные за месяц целиком и за предыдущие месяцы, начиная с января 2011 года, Вы можете получить, выбрав интересующий диапазон дат из раскрывающегося списка и нажав кнопку "Ввод!".


*Определитесь, кто Вы:
робот инопланетянин человек

Внимание! Время в таблицах - всемирное. Для получения местного времени необходимо прибавить поправку, которая равна 1 ч.

Смотрите также архив погоды в соседних городах и на ближайших метеорологических станциях:

Погода в Казо (Франция) (15 км)
Погода в Леж-Кап-Ферре (Франция) (22 км)
Погода в Бордо (Франция) (63 км)
Погода в Мон-де-Марсане (Франция) (82 км)
Погода в Даксе (Франция) (85 км)
Погода в Биаррице (Франция) (109 км)
Погода в Сибуре (Франция) (120 км)
Погода Сан-Себастьян аэропорту (Испания) (128 км)
Погода в По (Франция) (134 км)
Погода в Сан-Себастьяне (Испания) (140 км)

Пояснения к столбцам:

Ветер - указаны скорость ветра в м/с - средняя за 10 мин, порывы в срок и между сроками (в фигурных скобках) и направление, откуда дует ветер: С - северный, СВ - северо-восточный, В - восточный, ЮВ - юго-восточный, Ю - южный, ЮЗ - юго-западный, З - западный, СЗ - северо-западный.
Видимость - горизонтальная дальность видимости в метрах или километрах. При видимости от 1 до 10 км при отсутствии осадков обычно наблюдается дымка, при ухудшении видимости до 1 км и менее - туман. В сухую погоду видимость может ухудшаться дымом, пылью или мглою.
Явления - указаны атмосферные явления, наблюдавшиеся в срок или в последний час перед сроком; фигурными скобками обозначены явления, наблюдавшиеся между сроками (за 1-3 часа до срока); квадратными скобками обозначены град или гололедные отложения с указанием их диаметра в мм.
Облачность - указаны через наклонную черту общая и нижняя облачность в баллах и высота нижней границы облаков в метрах; квадратными скобками обозначены формы облаков: Ci - перистые, Cs - перисто-слоистые, Cc - перисто-кучевые, Ac - высококучевые, As - высокослоистые, Sc - слоисто-кучевые, Ns - слоисто-дождевые, Cu - кучевые, Cb - кучево-дождевые. Подробнее классификацию облаков см. в Атласе облаков (PDF).
T - Температура воздуха - температура, измеренная на высоте 2 м над землей.
Td - Температура точки росы - температура, при понижении до которой содержащийся в воздухе водяной пар достигнет насыщения.
f - Относительная влажность воздуха - влажноcть воздуха, измеренная на высоте 2 м над землей.
Te - Эффективная температура - температура, которую ощущает одетый по сезону человек в тени. Характеристика душности погоды. При расчете учитывается влияние влажности воздуха и скорости ветра на теплоощущения человека.
Tes - Эффективная температура на солнце - температура, которую ощущает человек, с поправкой на солнечный нагрев. Характеристика знойности погоды. Зависит от высоты солнца над горизонтом, облачности и скорости ветра. Ночью, в пасмурную погоду, а также при ветре 12 м/с и более поправка равна нулю.
P - Атмосферное давление - приведенное к уровню моря атмосферное давление.
Po - Атмосферное давление - измеренное на уровне метеостанции атмосферное давление.
Tmin - Минимальная температура - минимум температуры воздуха на высоте 2 м над землей.
Tmax - Максимальная температура - максимум температуры воздуха на высоте 2 м над землей.
R - Количество осадков - Количество выпавших осадков за период времени, мм. При наведении курсора мыши на число - период времени, за который выпало указанное количество осадков.
R24 - Количество осадков - Количество выпавших осадков за 24 часа, мм.
S - Снежный покров - Высота снежного покрова, см. При наведении курсора мыши на число - состояние снежного покрова и степень покрытия местности в баллах.